FENGYUN 1C DEB

Satellite information

Favourite Embed

Satellite Type and Status

DEBRISIN ORBIT

Key statistics

Satellite FENGYUN 1C DEB at a glance.

Uptime

9661

Days in orbit

Revolutions

≈ 14.3

Per day

Orbit

SSO

Sun Synchronous Orbit

Inclination

98.9

Latest

Satellite identification and parameters

Extended collection of information and parameters for FENGYUN 1C DEB.

Object identification

Identified? True

Debris? True

Object name: FENGYUN 1C DEB

International designator: 1999-025AFD

Object number (NORAD): 30442

Object ID (CCSDS): 30442

Country: PEOPLES REPUBLIC OF CHINA (PRC)

Current information (Y/N): Y

RCS size: SMALL

Orbital parameters

Period: 100.85 minutes

Inclination: 98.8677 deg

SMA: 7177.022 km

Apoapsis: 839.135 km

Periapsis: 758.639 km

RAAN: 26.494 deg

Eccentricy: 0.00560788

Argument of periapsis: 85.468 deg

Mean anomaly: 275.2903 deg

Mean motion: 14.27862362 rev/day

Mean motion (dot): 0.00008458 rev/day2

B* drag term: 0.0033760917 1/REarth

Two-line elements (TLE)

Creation date: Oct. 21, 2025, 3:26 a.m.

Reference frame: TEME

Reference center: EARTH

Epoch: Oct. 20, 2025, 5:16 p.m. UTC

TLE line 0: 0 FENGYUN 1C DEB

TLE line 1: 1 30442U 99025AFD 25293.72001559 .00008458 00000-0 33761-2 0 9995

TLE line 2: 2 30442 98.8677 26.4940 0056079 85.4680 275.2903 14.27862362964056

Live tracking on map

Real-time ground track for satellite FENGYUN 1C DEB.

In-orbit conjunctions

A list of the most updated potential collisions computed for object FENGYUN 1C DEB.

Target Orbit TCA Probability of collision Miss distance Type
DMSP 5D-2 F8 (USA 26) SSO 2025-06-01 18:24:36 0.0001914688 460.0 (m) PAYLOAD
COSMOS 2251 DEB LEO 2025-05-25 17:53:25 0.00013483 199.0 (m) DEBRIS
COSMOS 1275 DEB LEO 2024-11-11 23:24:53 0.0006383331 567.0 (m) DEBRIS

Associated space launch

Chinese polar orbiting meteorological satellite

FENGYUN 1C DEB was lifted into orbit during the mission ‘Long March 4B | Feng Yun 1C’, on board a Long March 4B space rocket.

The launch took place on May 10, 1999, 1:33 a.m. from Launch Complex 7.

For more information about the launch, click the button.

Launch to space Long March 4B | Feng Yun 1C
Long March 4B | Feng Yun 1C

Agency: N/A

Status: Launch Successful

Launch date: May 10, 1999, 1:33 a.m. UTC

Rocket: Long March 4B

Launch pad: Launch Complex 7

Location: Taiyuan Satellite Launch Center, People's Republic of China

...

Latest news about this satellite

There are no fresh news available about this satellite. Check back as we update our databases every day.


Newsletter sign-up

Weekly statistics, charts and insights to help you stay on top of the space industry.